Tracking 18665 objects as of 24-June-2017
HD Live streaming from Space Station
objects crossing your sky now

SSU 1

Track SSU 1 now!
10-day predictions
SSU 1 is classified as:


NORAD ID: 8835
Int'l Code: 1976-038C
Perigee: 471.1 km
Apogee: 1,470.8 km
Inclination: 63.3 °
Period: 104.3 minutes
Semi major axis: 7341 km
RCS: Unknown
Launch date: April 30, 1976
Source: United States (US)
Launch site: AIR FORCE WESTERN TEST RANGE (AFWTR)
Your satellite tracking list
Your tracking list is empty





NASA's NSSDC Master Catalog

Two Line Element Set (TLE):
1 08835U 76038C   16352.21795166 0.00001300  00000-0  19887-3 0    05
2 08835  63.2563 101.1970 0680789 126.8874 233.1126 13.80022970    04
Source of the keplerian elements: McCants